Location: Lanoux
(43.1180°N, 1.4255°E)
Time: 04:46:11
(UTC+00:00)

NANOSAT C BR1 - Visible Passes

Search period start: 21 April 2026 00:00
Search period end: 01 May 2026 00:00
Orbit: 474 x 480 km, 98.1° (Epoch: 20 April)

Date Brightness Start Highest point End Pass type
(mag) Time Alt. Az. Time Alt. Az. Time Alt. Az.
23 Apr ? 19:37:51 10° SW 19:40:08 16° W 19:42:26 10° NW visible
26 Apr ? 19:51:36 10° WSW 19:52:59 12° W 19:54:21 10° WNW visible
27 Apr ? 19:22:58 10° SSW 19:25:55 25° W 19:28:54 10° NW visible
30 Apr ? 19:35:55 10° SW 19:38:27 18° W 19:41:00 10° NW visible
